Location: Newark
(34.6501°N, 117.8502°W)
Time: 06:06:06
(UTC+00:00)

ISS - Visible Passes

Search period start: 18 September 2021 00:00
Search period end: 28 September 2021 00:00
Orbit: 419 x 423 km, 51.6° (Epoch: 17 September)

Date Brightness Start Highest point End Pass type
(mag) Time Alt. Az. Time Alt. Az. Time Alt. Az.
18 Sep -1.5 03:20:41 10° W 03:23:29 24° NW 03:26:14 10° NNE visible
19 Sep -2.4 02:33:20 10° WSW 02:36:31 39° NW 02:39:42 10° NNE visible
20 Sep -0.7 03:25:55 10° NW 03:26:57 11° NNW 03:27:59 10° N visible
21 Sep -1.0 02:37:42 10° WNW 02:39:50 16° NNW 02:41:58 10° N visible
